Theta_e
290 287 285 290 288 288 284 283 282 286 290 286 288 289 291 294 294 295 296 296 297 297 300 301 296 294 294 294 294 294 293 295 295 294 292 291 292 291 291 291 291 290 289 288
287 284 291 289 288 287 286 285 285 288 291 286 287 287 290 292 293 295 296 297 297 297 298 298 294 292 292 293 294 294 294 293 294 295 294 292 294 291 292 291 289 289 288 287
287 288 291 289 286 286 284 283 285 285 286 286 284 285 286 290 291 295 296 296 295 295 296 298 294 292 291 291 292 294 294 293 294 294 293 285 286 285 285 286 287 287 287 286
287 290 289 286 285 287 285 288 287 286 282 279 284 279 284 289 289 289 291 293 293 294 295 294 294 291 291 292 292 293 293 292 293 293 292 291 291 290 290 291 290 288 287 286
286 286 285 285 287 288 286 287 285 282 280 279 279 278 282 285 286 289 291 291 292 292 292 293 292 292 293 291 290 290 291 291 292 293 293 292 292 292 288 289 288 287 286 286
286 287 288 288 288 289 287 285 283 281 280 276 281 281 281 284 286 287 291 292 292 292 292 292 290 291 290 288 288 288 289 289 291 291 291 291 292 287 287 286 287 286 285 284
282 284 286 287 284 285 287 282 277 274 273 276 280 279 285 288 289 290 292 291 292 290 290 289 290 289 289 286 286 286 287 287 288 289 290 290 290 286 288 286 287 285 284 284
280 284 285 287 287 285 284 285 279 273 273 281 280 279 288 290 291 290 288 289 289 288 288 289 290 289 288 287 285 286 286 286 287 287 288 288 288 288 288 286 287 286 286 286
283 283 285 286 286 288 282 282 286 281 281 276 283 285 291 291 286 287 287 288 289 289 289 290 291 290 289 287 285 286 286 286 287 287 287 287 287 287 287 284 285 286 286 286
288 285 290 289 285 285 285 287 282 281 275 274 279 280 284 288 291 292 289 287 289 290 292 293 291 291 289 288 287 285 286 286 287 286 287 288 288 288 287 283 284 284 285 284
289 287 286 286 283 284 281 281 282 282 282 278 277 281 292 291 288 287 287 289 289 291 293 290 290 291 290 289 287 286 285 285 285 285 286 286 287 286 285 284 284 285 284 283
289 288 284 286 288 286 285 287 286 282 280 280 282 282 294 294 294 292 291 290 288 288 288 289 289 289 289 289 290 290 288 286 285 286 285 284 285 283 283 284 284 284 284 283
293 287 282 283 285 286 286 288 289 288 286 281 278 279 292 293 293 283 287 287 287 286 287 288 288 288 288 288 289 290 291 289 289 286 284 284 284 283 284 285 284 283 284 283
295 288 285 281 284 287 285 286 285 284 279 281 282 284 289 290 286 283 282 282 283 283 284 286 286 287 288 288 288 288 288 289 288 287 285 284 284 284 285 285 283 282 283 282
289 283 286 286 283 283 282 281 282 281 282 278 280 281 285 280 278 280 283 282 282 282 283 284 286 286 287 287 287 287 288 286 285 285 285 285 285 284 284 283 283 281 282 282
285 277 280 277 280 280 278 280 280 279 279 279 281 281 278 280 280 279 281 281 280 281 283 284 286 287 286 284 285 286 286 286 285 284 284 285 285 283 282 283 282 281 281 281
279 278 272 272 277 272 266 273 276 278 279 278 276 276 276 275 277 278 279 282 279 280 282 283 285 285 283 284 285 284 284 285 284 284 284 284 283 283 282 282 281 281 280 281
277 276 272 269 263 255 273 277 277 277 277 277 276 274 276 277 278 279 281 278 279 280 281 282 285 282 282 283 283 284 284 284 283 283 282 282 282 281 281 278 279 279 280 280
279 275 262 261 257 269 274 273 271 270 271 275 273 277 278 278 277 276 279 280 280 280 281 283 281 280 281 280 281 282 281 281 283 283 282 282 281 280 280 277 277 279 279 279
277 277 271 259 265 257 271 274 277 275 265 273 273 274 274 275 266 272 278 279 280 280 282 280 278 279 278 279 280 277 277 278 279 280 281 281 280 278 278 278 277 277 279 279
259 257 266 266 262 263 272 274 276 262 266 269 274 275 275 272 273 276 279 277 277 278 276 277 276 276 276 278 277 275 276 275 277 277 277 281 281 278 278 277 276 276 277 276
265 259 256 254 256 257 273 274 269 273 276 275 276 278 277 277 277 278 277 276 277 275 275 276 274 274 276 275 274 274 273 275 275 274 276 275 277 280 278 276 276 273 275 275
264 268 262 265 265 275 276 275 279 278 275 276 277 279 277 276 276 277 275 275 276 275 275 275 273 273 274 274 273 271 272 272 272 271 272 272 274 277 278 276 275 273 273 272
273 275 271 271 274 275 277 279 278 278 278 279 278 278 276 275 276 275 274 275 274 274 273 273 272 271 271 271 271 270 270 270 268 267 268 269 270 273 277 275 276 274 273 273
273 273 270 271 275 276 277 278 278 279 279 278 277 276 275 273 273 273 272 272 272 272 272 271 270 270 269 269 268 267 267 267 265 265 265 266 268 270 274 276 275 274 276 275
276 273 271 270 276 275 276 279 279 277 276 275 273 272 273 272 271 271 270 270 270 269 270 269 268 268 267 266 265 265 264 263 262 262 264 265 266 267 270 274 274 278 279 279
Wind_Speed
2 4 10 22 15 5 3 6 9 8 9 3 15 19 17 16 17 24 23 20 21 21 23 18 8 9 9 8 12 16 16 17 13 12 12 8 13 10 8 9 11 11 9 10
3 8 15 2 4 6 7 13 15 14 16 5 15 21 14 19 18 24 27 24 20 18 19 16 9 8 9 11 14 14 17 17 16 13 11 5 10 7 8 8 8 11 11 11
12 5 5 5 3 6 8 7 15 15 6 6 11 13 9 10 10 20 25 19 14 17 21 19 10 8 8 10 14 16 16 17 17 16 10 4 5 4 4 5 7 9 12 12
7 5 7 4 6 10 15 11 13 10 5 5 5 20 8 11 12 8 14 12 12 14 12 12 11 6 10 13 9 10 12 13 15 17 16 21 13 12 10 12 10 11 15 14
9 5 4 5 12 8 12 4 5 2 3 4 1 4 2 5 8 11 10 10 11 10 8 12 9 8 10 6 8 8 9 12 14 16 16 16 17 11 6 8 12 12 11 13
7 2 6 9 7 10 2 2 5 5 2 8 13 11 2 4 6 1 6 7 8 10 12 12 7 8 6 4 3 6 9 8 9 12 14 16 16 7 10 9 10 9 9 9
2 5 4 3 2 0 3 4 5 4 1 11 2 5 12 6 10 7 10 9 9 10 9 11 11 7 9 3 3 5 7 8 8 9 12 13 12 9 13 12 12 14 10 10
2 13 7 6 8 8 7 9 8 8 6 13 1 14 13 8 8 7 4 5 6 5 7 8 10 9 5 6 5 9 9 7 9 10 10 8 8 7 8 9 9 10 11 12
5 10 3 5 4 8 5 7 4 4 1 4 13 18 18 12 3 4 3 6 9 7 8 8 8 7 6 5 6 6 6 7 9 13 11 12 11 12 11 8 8 9 10 10
1 9 7 5 2 3 6 2 3 1 3 8 9 9 18 18 14 13 10 6 9 10 10 10 9 9 8 7 7 6 6 9 8 10 11 12 14 14 11 11 13 11 10 12
3 7 9 2 8 12 1 4 4 3 7 15 14 11 20 19 6 7 5 8 10 14 19 16 16 16 15 10 7 6 6 6 6 6 7 8 9 9 8 9 11 12 11 14
9 5 12 29 6 4 3 13 13 12 9 8 16 14 20 24 22 11 12 20 16 14 16 16 14 13 14 15 15 14 11 8 7 7 8 9 7 6 7 11 14 14 15 14
2 4 6 3 1 3 5 2 5 13 14 16 13 9 7 14 21 19 18 15 14 15 16 16 17 17 15 15 14 15 15 14 15 8 8 8 8 9 13 15 11 10 13 15
3 6 8 11 11 11 9 10 7 9 7 11 12 14 14 13 14 16 13 14 15 16 16 15 15 15 15 14 14 13 13 14 16 15 10 10 9 13 14 12 10 12 14 14
1 10 13 12 11 14 16 19 22 21 23 20 25 26 15 9 13 14 11 15 17 16 18 16 15 14 15 16 15 15 14 13 14 14 15 15 13 10 11 11 12 11 15 14
1 4 5 16 18 14 16 15 21 24 26 21 21 19 6 5 8 10 7 9 14 15 15 16 15 13 16 19 19 15 14 15 15 15 16 15 14 12 12 12 11 12 14 13
2 2 2 14 16 5 9 20 20 15 10 4 9 4 1 4 8 10 11 6 10 13 13 12 14 14 17 17 16 16 17 15 14 13 13 13 15 15 12 9 9 12 13 13
10 12 5 10 5 3 10 3 6 5 6 7 6 4 7 6 6 9 2 4 9 12 13 12 8 12 14 17 16 15 14 16 15 12 12 13 14 15 12 7 9 9 8 13
15 9 3 3 7 9 9 3 3 4 4 5 5 6 6 5 6 5 5 6 9 11 12 10 10 11 12 14 15 16 16 16 14 14 14 15 15 16 13 10 8 8 7 9
3 9 6 2 5 7 2 4 6 4 5 8 8 7 6 2 2 8 6 7 10 10 8 11 11 9 10 12 11 14 15 15 15 15 17 16 14 13 13 11 9 7 8 10
3 4 11 10 7 9 3 6 2 6 7 5 5 7 7 5 7 9 14 7 6 7 10 9 10 11 11 9 10 13 14 15 16 16 17 16 14 15 12 12 6 7 8 6
5 4 5 3 3 9 4 2 4 6 4 6 5 11 11 9 10 10 11 12 9 10 13 11 9 13 13 9 10 14 15 15 15 17 16 17 18 14 11 9 8 5 8 8
3 8 6 9 9 4 4 8 15 5 7 8 7 13 10 8 11 13 11 13 13 13 12 12 9 14 14 11 8 15 16 15 16 18 19 18 18 17 11 10 8 5 7 7
9 6 10 14 15 16 18 20 9 7 13 16 11 10 5 10 12 11 11 13 13 14 13 11 12 15 18 14 13 13 15 15 15 17 18 17 16 17 14 8 8 8 9 9
9 5 6 13 17 16 18 16 17 16 13 10 4 5 5 5 11 10 12 14 14 15 16 12 12 15 19 16 17 13 14 14 17 17 17 17 14 15 15 12 10 10 12 13
11 17 11 13 18 15 17 19 6 4 3 4 5 7 5 6 11 11 16 14 14 16 16 15 17 18 19 17 18 15 13 12 15 18 15 13 12 12 13 12 11 21 25 22
Wind_Direction
172 134 198 223 204 249 202 232 244 259 262 259 260 268 263 266 279 275 271 262 265 261 273 275 243 212 211 199 196 195 187 191 174 179 174 180 195 191 193 193 188 182 179 175
59 225 232 48 147 235 262 268 272 275 266 257 267 270 267 260 249 259 268 273 269 284 280 278 258 216 204 204 201 196 199 186 186 184 189 189 185 200 199 187 183 182 175 175
212 213 217 188 163 240 216 226 261 264 304 253 302 269 220 269 245 252 267 263 266 259 273 282 269 219 230 221 200 200 198 189 185 179 164 103 91 80 138 176 185 186 177 175
238 259 191 144 218 206 268 223 255 270 352 254 10 297 180 231 261 237 256 272 271 268 269 272 297 247 230 231 210 199 186 190 189 176 178 183 192 187 199 192 191 187 184 180
237 180 164 179 222 158 240 180 246 203 226 334 203 275 356 135 238 267 282 268 270 294 286 287 283 263 250 237 202 179 176 183 186 192 195 191 198 197 157 165 175 184 188 186
236 329 175 217 222 190 74 95 76 44 58 278 197 191 86 178 209 271 322 286 330 308 324 314 286 293 301 338 164 161 170 185 188 191 195 208 212 174 156 162 173 178 178 185
312 213 256 178 212 121 131 68 327 332 358 239 298 238 243 280 240 242 262 290 313 336 337 318 325 355 335 315 150 157 160 168 179 191 204 204 213 188 191 178 177 171 177 190
222 298 181 163 201 192 187 170 174 223 243 282 154 261 264 217 253 255 248 240 310 335 343 346 341 341 335 300 212 168 174 185 182 185 203 203 201 200 206 189 188 189 192 193
196 262 209 191 208 158 180 184 211 309 320 296 271 278 291 264 287 241 174 347 338 353 331 343 328 314 313 211 231 232 202 211 204 201 194 193 194 196 199 186 187 183 186 183
167 289 209 243 149 238 185 190 255 360 230 238 249 270 263 288 286 296 306 325 318 299 302 327 321 351 357 323 316 276 236 222 216 209 210 213 205 207 195 167 184 185 186 178
169 171 267 40 200 203 194 232 208 274 202 253 258 248 266 282 322 302 310 316 299 316 355 9 8 11 3 358 349 332 318 298 294 295 300 270 241 216 190 189 191 196 185 182
208 235 247 262 216 206 211 235 228 236 246 239 255 261 290 298 296 310 3 28 39 24 2 357 5 13 15 17 3 359 341 314 278 252 232 222 233 223 219 216 203 186 193 190
80 235 252 254 11 39 218 231 304 285 260 248 263 260 280 294 341 41 9 20 16 15 5 360 1 4 7 7 1 1 352 345 338 299 265 251 216 203 220 223 222 206 198 197
163 208 246 268 275 316 271 303 329 308 284 310 283 308 312 335 337 7 11 17 10 7 4 358 357 355 355 354 351 348 350 352 337 335 310 267 240 228 229 227 208 200 203 200
216 267 271 280 300 289 297 291 284 266 266 259 277 279 310 8 354 352 6 6 4 356 349 349 348 345 344 344 343 343 341 344 340 333 333 316 288 257 238 223 210 203 203 203
109 283 334 291 291 296 283 271 262 272 273 265 261 268 38 5 334 343 336 342 347 342 342 336 338 347 340 337 334 335 338 333 339 338 335 330 312 276 244 232 214 202 202 204
267 267 299 276 290 348 297 250 251 260 303 292 264 77 292 306 332 323 317 311 322 333 325 328 323 342 334 330 325 329 334 327 326 330 327 332 329 308 277 251 232 216 210 196
243 243 241 271 28 246 250 119 99 133 140 115 115 196 227 242 263 281 239 284 316 318 320 325 323 328 324 318 324 327 327 318 323 326 323 330 326 319 297 252 235 228 215 215
216 234 261 203 205 288 294 7 87 109 224 172 201 237 261 274 286 241 359 315 302 300 301 308 323 316 311 314 324 321 324 317 319 321 318 326 327 318 310 279 261 244 225 222
160 218 181 90 227 229 220 232 232 136 270 225 205 232 232 264 354 289 314 312 300 294 303 309 303 296 306 305 312 318 312 310 315 323 325 317 313 304 299 288 271 251 227 227
21 11 207 237 253 286 231 248 194 94 256 227 191 231 228 215 208 263 299 283 271 274 296 293 299 296 293 288 308 302 305 309 317 318 311 318 313 307 298 287 260 261 244 217
174 165 223 79 39 291 220 320 165 220 256 235 232 249 228 239 258 264 273 290 286 293 300 300 296 298 294 304 301 299 301 309 310 312 314 317 312 302 288 267 264 229 242 216
266 198 189 179 219 249 221 236 276 239 227 264 240 258 231 258 266 273 275 282 286 288 287 295 288 292 291 300 300 300 304 313 312 311 309 309 305 298 284 279 253 233 222 234
252 231 251 268 262 255 262 270 259 260 265 277 266 247 219 244 261 275 284 285 291 291 286 286 284 283 287 295 295 290 303 310 305 301 298 299 298 300 291 254 247 228 223 215
236 176 215 248 263 267 262 260 265 268 270 267 250 233 250 261 277 286 285 285 286 287 291 288 281 283 283 292 291 296 302 306 298 295 294 294 292 289 286 257 243 235 234 223
229 241 240 251 259 267 272 274 280 281 305 345 349 330 316 299 291 294 284 288 290 290 292 290 287 285 286 291 290 293 297 288 285 287 288 285 285 285 281 276 260 246 245 241